Find Isis 2

NORAD ID: 5104 Int'l Des: 1971-024 Owner: CRC Country: CA operational
LEOCIRCULARPOLAR

实时位置

正在加载3D地球...

关于 Isis 2

正在加载描述...

即将过境

Passes for default location (London). Set your location on the main map for personalized predictions.

高度历史

Loading altitude history...

两行轨道根数

1 5104U 71024A 26120.56601535 -.00000001 00000-0 -59886-4 0 9999
2 5104 88.1644 323.9640 0042579 230.8574 156.1744 12.67884955548714
Epoch: Apr 30, 2026 • Age: 10 hours

当前状态

高度 1431.2 km
速度 7.14 km/s
星下点 85.06°N, 136.2°E
类型 other

Most Searched